QPF
0.00 0.00 0.00 0.00 0.00 0.00 0.00 0.01 0.01 0.00 0.00 0.00 0.00 0.00 0.01 0.01 0.01 0.01 0.01 0.01 0.01 0.01 0.01 0.00 0.00 0.00 0.01 0.01 0.01 0.01 0.01 0.02 0.02 0.02 0.03 0.03 0.03 0.03 0.02 0.01 0.01 0.01 0.01 0.02
0.00 0.00 0.00 0.00 0.00 0.00 0.00 0.00 0.00 0.00 0.00 0.00 0.00 0.00 0.00 0.00 0.00 0.00 0.00 0.00 0.00 0.00 0.00 0.00 0.00 0.01 0.01 0.01 0.01 0.01 0.01 0.02 0.02 0.02 0.03 0.04 0.04 0.04 0.03 0.01 0.01 0.01 0.01 0.01
0.01 0.00 0.00 0.00 0.00 0.00 0.00 0.00 0.00 0.00 0.00 0.00 0.00 0.00 0.00 0.00 0.00 0.00 0.00 0.00 0.00 0.00 0.00 0.00 0.00 0.00 0.00 0.00 0.01 0.01 0.01 0.02 0.02 0.02 0.03 0.03 0.03 0.04 0.03 0.02 0.01 0.01 0.01 0.01
0.02 0.01 0.01 0.00 0.00 0.00 0.00 0.00 0.00 0.00 0.00 0.00 0.00 0.00 0.00 0.00 0.00 0.00 0.00 0.00 0.00 0.00 0.00 0.00 0.00 0.00 0.00 0.00 0.00 0.01 0.01 0.02 0.02 0.02 0.02 0.02 0.03 0.03 0.03 0.02 0.02 0.01 0.01 0.01
0.03 0.02 0.00 0.00 0.00 0.00 0.00 0.00 0.00 0.00 0.00 0.00 0.00 0.00 0.00 0.00 0.00 0.00 0.00 0.00 0.00 0.00 0.00 0.00 0.00 0.00 0.00 0.00 0.00 0.01 0.01 0.02 0.02 0.02 0.02 0.03 0.02 0.02 0.02 0.02 0.02 0.02 0.02 0.02
0.03 0.02 0.00 0.00 0.00 0.00 0.00 0.00 0.00 0.00 0.00 0.00 0.00 0.00 0.00 0.00 0.00 0.00 0.00 0.00 0.00 0.00 0.00 0.00 0.00 0.00 0.00 0.00 0.00 0.00 0.01 0.01 0.02 0.02 0.03 0.03 0.02 0.02 0.02 0.02 0.02 0.02 0.02 0.02
0.02 0.02 0.01 0.00 0.00 0.00 0.01 0.01 0.00 0.00 0.00 0.00 0.00 0.00 0.00 0.00 0.00 0.00 0.00 0.00 0.00 0.00 0.00 0.00 0.00 0.00 0.00 0.01 0.00 0.00 0.01 0.01 0.01 0.02 0.03 0.02 0.02 0.02 0.01 0.02 0.02 0.02 0.02 0.02
0.01 0.02 0.01 0.00 0.00 0.01 0.01 0.01 0.01 0.01 0.01 0.00 0.00 0.00 0.00 0.00 0.00 0.00 0.00 0.00 0.00 0.00 0.00 0.00 0.00 0.00 0.00 0.01 0.01 0.01 0.00 0.01 0.01 0.02 0.02 0.02 0.02 0.02 0.02 0.02 0.02 0.02 0.03 0.02
0.01 0.01 0.00 0.00 0.00 0.00 0.00 0.01 0.01 0.01 0.00 0.00 0.00 0.00 0.00 0.00 0.00 0.00 0.00 0.00 0.00 0.00 0.00 0.00 0.00 0.00 0.00 0.01 0.01 0.01 0.01 0.01 0.01 0.01 0.02 0.02 0.01 0.02 0.02 0.02 0.02 0.02 0.02 0.02
0.00 0.00 0.00 0.00 0.00 0.00 0.00 0.00 0.00 0.00 0.00 0.00 0.00 0.00 0.00 0.00 0.00 0.00 0.00 0.00 0.00 0.00 0.00 0.00 0.00 0.00 0.00 0.00 0.01 0.01 0.01 0.01 0.01 0.01 0.01 0.01 0.01 0.02 0.01 0.01 0.01 0.01 0.02 0.02
0.00 0.00 0.00 0.00 0.00 0.00 0.00 0.00 0.00 0.00 0.00 0.00 0.00 0.00 0.00 0.00 0.00 0.00 0.00 0.00 0.00 0.00 0.00 0.00 0.00 0.00 0.00 0.00 0.01 0.02 0.01 0.01 0.01 0.01 0.01 0.01 0.01 0.01 0.01 0.01 0.01 0.01 0.01 0.01
0.00 0.00 0.00 0.00 0.00 0.00 0.00 0.00 0.00 0.00 0.00 0.00 0.00 0.00 0.00 0.00 0.00 0.00 0.00 0.00 0.00 0.00 0.00 0.00 0.00 0.00 0.00 0.00 0.01 0.02 0.02 0.01 0.01 0.01 0.01 0.01 0.01 0.01 0.01 0.01 0.01 0.01 0.01 0.01
0.00 0.00 0.00 0.00 0.00 0.00 0.00 0.00 0.00 0.00 0.00 0.00 0.00 0.00 0.00 0.00 0.00 0.00 0.00 0.00 0.00 0.00 0.00 0.00 0.00 0.00 0.00 0.00 0.01 0.02 0.02 0.02 0.01 0.01 0.01 0.01 0.01 0.01 0.01 0.01 0.01 0.01 0.01 0.01
0.00 0.00 0.01 0.00 0.00 0.00 0.00 0.00 0.00 0.00 0.00 0.00 0.00 0.00 0.00 0.00 0.00 0.00 0.00 0.00 0.00 0.00 0.00 0.00 0.00 0.00 0.00 0.00 0.01 0.01 0.02 0.03 0.02 0.02 0.02 0.01 0.01 0.01 0.01 0.01 0.00 0.00 0.00 0.01
0.00 0.00 0.00 0.00 0.00 0.00 0.00 0.00 0.00 0.00 0.00 0.00 0.00 0.00 0.00 0.00 0.00 0.00 0.00 0.00 0.00 0.00 0.00 0.00 0.00 0.00 0.00 0.00 0.01 0.01 0.01 0.02 0.02 0.02 0.02 0.02 0.01 0.01 0.00 0.00 0.00 0.00 0.00 0.00
0.00 0.00 0.00 0.00 0.00 0.00 0.00 0.00 0.00 0.00 0.00 0.00 0.00 0.00 0.00 0.00 0.00 0.00 0.00 0.00 0.00 0.00 0.00 0.00 0.00 0.00 0.00 0.00 0.00 0.01 0.01 0.02 0.02 0.01 0.01 0.01 0.01 0.00 0.00 0.00 0.00 0.01 0.01 0.01
0.01 0.01 0.01 0.01 0.01 0.01 0.00 0.00 0.00 0.00 0.00 0.00 0.00 0.00 0.00 0.00 0.00 0.00 0.00 0.00 0.00 0.00 0.00 0.00 0.00 0.00 0.00 0.00 0.00 0.00 0.01 0.01 0.01 0.01 0.01 0.01 0.00 0.00 0.00 0.00 0.00 0.00 0.01 0.01
0.01 0.01 0.00 0.01 0.01 0.01 0.01 0.00 0.00 0.00 0.00 0.00 0.00 0.00 0.00 0.00 0.00 0.00 0.00 0.00 0.00 0.00 0.00 0.00 0.00 0.00 0.00 0.00 0.00 0.01 0.00 0.01 0.01 0.01 0.01 0.02 0.01 0.01 0.00 0.00 0.00 0.00 0.01 0.01
0.00 0.00 0.00 0.00 0.00 0.01 0.01 0.01 0.00 0.00 0.00 0.00 0.00 0.00 0.00 0.00 0.00 0.01 0.01 0.00 0.00 0.00 0.00 0.00 0.00 0.00 0.00 0.00 0.00 0.00 0.00 0.00 0.00 0.00 0.01 0.01 0.01 0.01 0.01 0.01 0.00 0.00 0.00 0.01
0.00 0.00 0.00 0.00 0.00 0.00 0.00 0.00 0.00 0.00 0.00 0.00 0.00 0.00 0.00 0.01 0.01 0.01 0.01 0.01 0.00 0.00 0.00 0.00 0.00 0.00 0.00 0.00 0.00 0.00 0.00 0.00 0.00 0.00 0.00 0.01 0.01 0.01 0.01 0.01 0.01 0.00 0.00 0.00
0.00 0.00 0.00 0.00 0.00 0.00 0.00 0.00 0.00 0.00 0.00 0.00 0.00 0.01 0.01 0.01 0.01 0.01 0.02 0.01 0.01 0.00 0.00 0.00 0.00 0.00 0.00 0.00 0.00 0.00 0.00 0.00 0.00 0.00 0.00 0.00 0.00 0.00 0.00 0.01 0.01 0.01 0.01 0.01
0.00 0.01 0.01 0.01 0.01 0.00 0.00 0.00 0.00 0.00 0.00 0.00 0.00 0.00 0.01 0.01 0.01 0.01 0.01 0.01 0.01 0.01 0.01 0.00 0.00 0.00 0.00 0.00 0.00 0.00 0.00 0.00 0.00 0.01 0.01 0.01 0.01 0.01 0.01 0.01 0.01 0.01 0.01 0.01
0.01 0.01 0.01 0.01 0.01 0.01 0.00 0.00 0.00 0.00 0.00 0.00 0.00 0.01 0.01 0.01 0.01 0.01 0.01 0.01 0.01 0.01 0.01 0.01 0.01 0.01 0.01 0.01 0.01 0.00 0.00 0.00 0.00 0.01 0.01 0.01 0.01 0.01 0.01 0.01 0.01 0.01 0.02 0.02
0.01 0.01 0.01 0.00 0.01 0.00 0.00 0.00 0.00 0.01 0.01 0.01 0.01 0.01 0.01 0.00 0.00 0.00 0.01 0.01 0.01 0.01 0.01 0.01 0.01 0.01 0.01 0.01 0.00 0.00 0.00 0.01 0.01 0.01 0.01 0.01 0.01 0.01 0.01 0.01 0.01 0.01 0.01 0.02
0.01 0.01 0.00 0.00 0.00 0.00 0.00 0.01 0.01 0.01 0.01 0.01 0.01 0.01 0.01 0.01 0.00 0.01 0.01 0.01 0.01 0.01 0.01 0.01 0.01 0.01 0.01 0.01 0.00 0.00 0.00 0.01 0.01 0.01 0.01 0.01 0.01 0.01 0.01 0.01 0.01 0.01 0.01 0.01
0.00 0.00 0.00 0.00 0.01 0.01 0.01 0.01 0.01 0.01 0.01 0.01 0.01 0.01 0.01 0.01 0.01 0.01 0.01 0.01 0.01 0.01 0.01 0.01 0.01 0.01 0.01 0.01 0.01 0.01 0.00 0.00 0.01 0.01 0.01 0.01 0.01 0.01 0.01 0.01 0.01 0.01 0.01 0.01
0.00 0.00 0.00 0.00 0.00 0.00 0.01 0.01 0.01 0.01 0.01 0.01 0.01 0.01 0.01 0.01 0.01 0.01 0.01 0.01 0.01 0.02 0.02 0.02 0.01 0.01 0.01 0.01 0.01 0.00 0.00 0.00 0.00 0.01 0.01 0.01 0.01 0.01 0.01 0.01 0.01 0.01 0.01 0.01
MSLP
1021.12 1021.01 1020.85 1020.60 1020.25 1019.77 1019.17 1018.46 1017.67 1016.84 1016.02 1015.25 1014.58 1014.03 1013.60 1013.29 1013.08 1012.94 1012.82 1012.72 1012.61 1012.49 1012.37 1012.27 1012.20 1012.20 1012.26 1012.41 1012.62 1012.88 1013.17 1013.48 1013.78 1014.08 1014.37 1014.66 1014.95 1015.24 1015.54 1015.83 1016.09 1016.32 1016.48 1016.56
1020.68 1020.45 1020.17 1019.82 1019.37 1018.84 1018.23 1017.55 1016.83 1016.10 1015.40 1014.76 1014.20 1013.74 1013.38 1013.11 1012.91 1012.74 1012.61 1012.47 1012.33 1012.19 1012.06 1011.95 1011.88 1011.87 1011.92 1012.04 1012.22 1012.44 1012.69 1012.96 1013.23 1013.50 1013.77 1014.05 1014.34 1014.65 1014.96 1015.27 1015.57 1015.82 1016.02 1016.15
1020.17 1019.82 1019.41 1018.93 1018.39 1017.80 1017.16 1016.51 1015.86 1015.24 1014.67 1014.17 1013.74 1013.40 1013.13 1012.91 1012.74 1012.58 1012.44 1012.28 1012.12 1011.96 1011.81 1011.69 1011.62 1011.59 1011.63 1011.72 1011.87 1012.05 1012.25 1012.48 1012.70 1012.94 1013.18 1013.44 1013.71 1014.01 1014.32 1014.63 1014.94 1015.22 1015.44 1015.61
1019.63 1019.16 1018.62 1018.03 1017.40 1016.75 1016.10 1015.48 1014.90 1014.39 1013.94 1013.57 1013.28 1013.05 1012.87 1012.72 1012.58 1012.44 1012.28 1012.11 1011.93 1011.75 1011.58 1011.44 1011.34 1011.30 1011.32 1011.39 1011.50 1011.64 1011.81 1011.99 1012.18 1012.37 1012.58 1012.80 1013.04 1013.32 1013.61 1013.91 1014.22 1014.51 1014.76 1014.96
1019.08 1018.50 1017.87 1017.19 1016.49 1015.81 1015.16 1014.58 1014.07 1013.64 1013.31 1013.05 1012.87 1012.73 1012.62 1012.52 1012.40 1012.26 1012.09 1011.90 1011.68 1011.47 1011.28 1011.11 1011.00 1010.94 1010.93 1010.98 1011.07 1011.18 1011.32 1011.46 1011.61 1011.77 1011.94 1012.12 1012.34 1012.58 1012.85 1013.14 1013.44 1013.73 1014.00 1014.24
1018.49 1017.85 1017.16 1016.44 1015.72 1015.04 1014.41 1013.87 1013.42 1013.08 1012.82 1012.64 1012.53 1012.44 1012.37 1012.28 1012.16 1012.00 1011.80 1011.56 1011.32 1011.07 1010.85 1010.66 1010.53 1010.45 1010.43 1010.46 1010.53 1010.62 1010.74 1010.86 1010.98 1011.11 1011.25 1011.41 1011.60 1011.82 1012.07 1012.35 1012.64 1012.94 1013.23 1013.49
1017.85 1017.19 1016.49 1015.78 1015.09 1014.44 1013.86 1013.37 1012.98 1012.68 1012.47 1012.33 1012.23 1012.15 1012.06 1011.94 1011.78 1011.58 1011.33 1011.05 1010.77 1010.49 1010.24 1010.04 1009.90 1009.82 1009.79 1009.82 1009.88 1009.97 1010.07 1010.18 1010.29 1010.40 1010.53 1010.68 1010.86 1011.07 1011.31 1011.58 1011.88 1012.18 1012.49 1012.78
1017.11 1016.48 1015.83 1015.18 1014.55 1013.97 1013.46 1013.03 1012.68 1012.41 1012.21 1012.05 1011.92 1011.79 1011.64 1011.45 1011.22 1010.95 1010.64 1010.32 1010.00 1009.71 1009.45 1009.25 1009.12 1009.04 1009.03 1009.06 1009.13 1009.22 1009.33 1009.44 1009.55 1009.67 1009.80 1009.95 1010.13 1010.35 1010.59 1010.88 1011.18 1011.51 1011.83 1012.14
1016.28 1015.70 1015.13 1014.57 1014.04 1013.56 1013.12 1012.75 1012.43 1012.16 1011.93 1011.72 1011.51 1011.28 1011.03 1010.75 1010.43 1010.08 1009.72 1009.36 1009.03 1008.73 1008.49 1008.32 1008.21 1008.16 1008.18 1008.24 1008.32 1008.44 1008.55 1008.68 1008.80 1008.93 1009.08 1009.25 1009.45 1009.68 1009.95 1010.25 1010.58 1010.93 1011.28 1011.61
1015.35 1014.86 1014.38 1013.94 1013.52 1013.13 1012.77 1012.44 1012.14 1011.84 1011.55 1011.25 1010.93 1010.59 1010.21 1009.82 1009.40 1008.99 1008.58 1008.20 1007.88 1007.61 1007.41 1007.28 1007.22 1007.23 1007.29 1007.39 1007.51 1007.64 1007.78 1007.92 1008.07 1008.22 1008.39 1008.59 1008.82 1009.08 1009.38 1009.72 1010.08 1010.45 1010.82 1011.17
1014.40 1013.99 1013.61 1013.27 1012.95 1012.65 1012.36 1012.05 1011.74 1011.39 1011.02 1010.61 1010.17 1009.69 1009.20 1008.69 1008.19 1007.72 1007.29 1006.92 1006.62 1006.41 1006.27 1006.22 1006.23 1006.30 1006.42 1006.56 1006.72 1006.88 1007.04 1007.20 1007.37 1007.55 1007.75 1007.98 1008.24 1008.54 1008.88 1009.25 1009.64 1010.03 1010.42 1010.79
1013.51 1013.16 1012.86 1012.60 1012.36 1012.12 1011.85 1011.56 1011.21 1010.80 1010.33 1009.81 1009.25 1008.65 1008.04 1007.45 1006.89 1006.38 1005.95 1005.61 1005.37 1005.23 1005.18 1005.20 1005.30 1005.44 1005.61 1005.80 1005.99 1006.17 1006.36 1006.54 1006.73 1006.93 1007.15 1007.41 1007.71 1008.04 1008.42 1008.81 1009.23 1009.65 1010.05 1010.43
1012.77 1012.46 1012.21 1011.99 1011.79 1011.57 1011.31 1010.99 1010.60 1010.12 1009.56 1008.94 1008.27 1007.57 1006.88 1006.22 1005.62 1005.11 1004.71 1004.41 1004.24 1004.17 1004.20 1004.31 1004.47 1004.68 1004.90 1005.12 1005.34 1005.54 1005.74 1005.93 1006.13 1006.34 1006.59 1006.88 1007.20 1007.56 1007.97 1008.39 1008.83 1009.26 1009.68 1010.06
1012.25 1011.95 1011.71 1011.51 1011.31 1011.08 1010.80 1010.44 1009.99 1009.44 1008.80 1008.10 1007.35 1006.58 1005.84 1005.15 1004.54 1004.05 1003.67 1003.43 1003.32 1003.32 1003.42 1003.59 1003.81 1004.05 1004.30 1004.54 1004.77 1004.98 1005.17 1005.36 1005.57 1005.80 1006.06 1006.36 1006.71 1007.09 1007.52 1007.96 1008.42 1008.87 1009.29 1009.69
1011.97 1011.67 1011.42 1011.20 1010.97 1010.71 1010.38 1009.97 1009.46 1008.86 1008.16 1007.40 1006.60 1005.81 1005.04 1004.35 1003.76 1003.29 1002.95 1002.76 1002.69 1002.74 1002.88 1003.08 1003.32 1003.58 1003.84 1004.07 1004.29 1004.48 1004.67 1004.85 1005.06 1005.29 1005.56 1005.87 1006.23 1006.64 1007.08 1007.54 1008.01 1008.47 1008.91 1009.32
1011.91 1011.60 1011.32 1011.06 1010.79 1010.48 1010.11 1009.64 1009.09 1008.44 1007.72 1006.94 1006.13 1005.33 1004.58 1003.90 1003.34 1002.90 1002.60 1002.43 1002.39 1002.45 1002.60 1002.80 1003.03 1003.27 1003.50 1003.71 1003.89 1004.06 1004.23 1004.40 1004.60 1004.83 1005.10 1005.42 1005.80 1006.22 1006.67 1007.14 1007.63 1008.10 1008.56 1008.99
1012.00 1011.67 1011.36 1011.06 1010.74 1010.39 1009.96 1009.46 1008.88 1008.22 1007.49 1006.72 1005.93 1005.16 1004.44 1003.81 1003.28 1002.87 1002.59 1002.43 1002.39 1002.44 1002.56 1002.73 1002.92 1003.11 1003.29 1003.45 1003.60 1003.73 1003.87 1004.03 1004.21 1004.44 1004.72 1005.05 1005.43 1005.86 1006.33 1006.82 1007.32 1007.81 1008.29 1008.74
1012.14 1011.79 1011.45 1011.12 1010.76 1010.36 1009.90 1009.38 1008.79 1008.14 1007.43 1006.70 1005.96 1005.24 1004.58 1004.00 1003.51 1003.13 1002.86 1002.70 1002.64 1002.66 1002.72 1002.83 1002.95 1003.08 1003.20 1003.30 1003.40 1003.50 1003.61 1003.75 1003.93 1004.15 1004.44 1004.77 1005.17 1005.61 1006.09 1006.59 1007.11 1007.63 1008.13 1008.62
1012.19 1011.83 1011.48 1011.12 1010.73 1010.30 1009.83 1009.31 1008.73 1008.11 1007.45 1006.78 1006.11 1005.47 1004.88 1004.36 1003.92 1003.56 1003.31 1003.13 1003.04 1003.00 1003.01 1003.05 1003.10 1003.16 1003.21 1003.26 1003.31 1003.38 1003.47 1003.60 1003.77 1004.00 1004.29 1004.64 1005.04 1005.49 1005.98 1006.50 1007.04 1007.57 1008.10 1008.62
1012.06 1011.71 1011.35 1010.97 1010.56 1010.13 1009.66 1009.15 1008.60 1008.03 1007.44 1006.84 1006.25 1005.70 1005.18 1004.73 1004.34 1004.02 1003.78 1003.60 1003.47 1003.40 1003.35 1003.32 1003.31 1003.30 1003.30 1003.31 1003.33 1003.37 1003.45 1003.58 1003.75 1003.99 1004.28 1004.64 1005.05 1005.52 1006.02 1006.55 1007.09 1007.65 1008.20 1008.73
1011.70 1011.35 1010.98 1010.60 1010.19 1009.76 1009.30 1008.81 1008.31 1007.80 1007.27 1006.76 1006.26 1005.80 1005.37 1004.99 1004.66 1004.38 1004.16 1003.98 1003.85 1003.74 1003.66 1003.59 1003.53 1003.49 1003.45 1003.43 1003.44 1003.48 1003.55 1003.68 1003.87 1004.11 1004.41 1004.78 1005.20 1005.67 1006.17 1006.71 1007.26 1007.82 1008.37 1008.91
1011.08 1010.74 1010.38 1010.00 1009.59 1009.16 1008.72 1008.27 1007.81 1007.36 1006.91 1006.48 1006.07 1005.70 1005.36 1005.06 1004.80 1004.57 1004.39 1004.23 1004.10 1003.99 1003.90 1003.82 1003.74 1003.68 1003.64 1003.61 1003.62 1003.67 1003.75 1003.89 1004.09 1004.35 1004.66 1005.04 1005.46 1005.93 1006.43 1006.96 1007.51 1008.06 1008.60 1009.13
1010.25 1009.91 1009.56 1009.17 1008.78 1008.37 1007.95 1007.53 1007.12 1006.73 1006.35 1006.00 1005.68 1005.39 1005.13 1004.91 1004.72 1004.56 1004.43 1004.32 1004.22 1004.13 1004.05 1003.98 1003.92 1003.87 1003.84 1003.83 1003.86 1003.92 1004.03 1004.19 1004.40 1004.68 1005.00 1005.38 1005.80 1006.26 1006.76 1007.27 1007.80 1008.33 1008.85 1009.36
1009.24 1008.92 1008.56 1008.20 1007.81 1007.42 1007.03 1006.65 1006.29 1005.95 1005.64 1005.36 1005.11 1004.91 1004.73 1004.59 1004.48 1004.39 1004.32 1004.27 1004.22 1004.17 1004.13 1004.10 1004.07 1004.05 1004.05 1004.07 1004.13 1004.22 1004.36 1004.54 1004.77 1005.06 1005.39 1005.77 1006.19 1006.64 1007.12 1007.61 1008.11 1008.61 1009.09 1009.55
1008.13 1007.81 1007.48 1007.12 1006.76 1006.40 1006.04 1005.71 1005.39 1005.10 1004.85 1004.64 1004.46 1004.33 1004.24 1004.17 1004.13 1004.12 1004.12 1004.12 1004.14 1004.15 1004.16 1004.18 1004.20 1004.22 1004.26 1004.33 1004.42 1004.54 1004.71 1004.91 1005.17 1005.46 1005.80 1006.18 1006.60 1007.03 1007.49 1007.96 1008.42 1008.88 1009.32 1009.72
1006.95 1006.65 1006.34 1006.02 1005.69 1005.37 1005.05 1004.76 1004.49 1004.26 1004.07 1003.91 1003.81 1003.74 1003.71 1003.72 1003.75 1003.80 1003.87 1003.94 1004.02 1004.10 1004.17 1004.24 1004.32 1004.39 1004.48 1004.58 1004.71 1004.87 1005.06 1005.29 1005.56 1005.87 1006.21 1006.59 1007.00 1007.42 1007.85 1008.28 1008.71 1009.12 1009.50 1009.85
1005.74 1005.47 1005.20 1004.92 1004.63 1004.36 1004.10 1003.86 1003.64 1003.47 1003.33 1003.24 1003.19 1003.18 1003.21 1003.28 1003.37 1003.49 1003.62 1003.76 1003.90 1004.03 1004.17 1004.29 1004.42 1004.55 1004.68 1004.83 1005.00 1005.19 1005.40 1005.65 1005.94 1006.26 1006.60 1006.98 1007.37 1007.77 1008.18 1008.58 1008.97 1009.33 1009.65 1009.93
Thickness
5522 5523 5520 5522 5524 5521 5517 5523 5525 5544 5547 5555 5552 5548 5547 5546 5545 5544 5545 5545 5545 5544 5545 5544 5543 5541 5539 5538 5537 5535 5533 5533 5534 5533 5531 5530 5529 5528 5528 5527 5528 5528 5529 5529
5511 5515 5514 5516 5525 5524 5523 5524 5526 5530 5538 5547 5543 5540 5540 5541 5539 5539 5539 5540 5540 5540 5540 5540 5539 5537 5535 5534 5532 5530 5530 5530 5529 5527 5525 5524 5523 5522 5521 5521 5521 5521 5521 5522
5509 5510 5508 5523 5538 5532 5527 5527 5524 5526 5537 5539 5535 5534 5535 5534 5533 5534 5534 5535 5535 5536 5536 5536 5535 5533 5532 5530 5528 5526 5526 5525 5524 5522 5521 5519 5517 5516 5516 5515 5515 5515 5515 5516
5494 5499 5503 5542 5533 5529 5525 5526 5524 5525 5529 5529 5528 5528 5527 5527 5527 5529 5530 5531 5531 5530 5530 5530 5529 5528 5527 5525 5524 5522 5522 5521 5519 5517 5516 5514 5513 5512 5510 5510 5509 5509 5509 5509
5483 5494 5514 5531 5526 5517 5516 5523 5523 5518 5520 5519 5517 5517 5525 5524 5522 5523 5523 5524 5525 5525 5524 5524 5523 5522 5520 5520 5518 5518 5518 5517 5515 5513 5511 5510 5508 5507 5506 5504 5504 5503 5503 5503
5474 5476 5498 5528 5513 5505 5506 5515 5517 5509 5508 5507 5504 5511 5522 5519 5515 5516 5516 5517 5517 5518 5518 5518 5518 5516 5515 5515 5514 5515 5515 5513 5511 5508 5507 5506 5505 5503 5500 5499 5498 5497 5496 5496
5466 5470 5499 5512 5499 5493 5500 5511 5506 5501 5499 5497 5496 5502 5507 5508 5508 5508 5509 5509 5509 5510 5511 5512 5512 5510 5510 5510 5511 5511 5509 5507 5505 5503 5502 5501 5499 5497 5495 5493 5492 5491 5490 5489
5464 5463 5488 5501 5488 5490 5501 5499 5495 5493 5491 5490 5491 5493 5495 5497 5500 5501 5503 5503 5503 5503 5506 5506 5504 5502 5504 5506 5506 5503 5502 5500 5500 5498 5497 5495 5493 5491 5489 5488 5486 5485 5484 5483
5474 5487 5496 5487 5487 5487 5484 5484 5485 5484 5484 5482 5482 5485 5488 5490 5493 5495 5496 5497 5496 5496 5499 5500 5498 5497 5499 5501 5499 5497 5496 5495 5494 5492 5491 5489 5487 5485 5483 5482 5481 5480 5479 5478
5463 5478 5481 5478 5476 5474 5472 5472 5474 5474 5474 5473 5474 5477 5480 5483 5486 5487 5489 5489 5489 5489 5491 5494 5493 5492 5493 5494 5492 5491 5490 5490 5488 5486 5485 5483 5481 5479 5478 5477 5475 5474 5473 5472
5455 5467 5466 5471 5467 5466 5465 5464 5463 5465 5464 5464 5466 5469 5471 5474 5477 5480 5481 5481 5481 5481 5484 5486 5486 5486 5486 5485 5485 5484 5484 5483 5482 5480 5479 5477 5475 5474 5473 5472 5471 5470 5468 5466
5455 5461 5454 5460 5459 5455 5454 5455 5456 5456 5458 5459 5458 5460 5462 5465 5467 5469 5471 5472 5472 5473 5474 5477 5478 5479 5479 5478 5477 5478 5477 5477 5476 5474 5472 5470 5469 5466 5463 5462 5461 5459 5459 5457
5446 5445 5442 5445 5446 5444 5443 5446 5446 5446 5447 5449 5451 5451 5452 5454 5457 5459 5461 5463 5464 5465 5466 5468 5469 5471 5472 5470 5470 5470 5471 5470 5469 5468 5466 5464 5462 5460 5458 5454 5451 5450 5449 5448
5432 5428 5428 5432 5433 5434 5433 5434 5435 5436 5437 5438 5440 5442 5443 5444 5447 5449 5452 5454 5455 5455 5457 5459 5461 5463 5464 5462 5461 5462 5463 5462 5461 5461 5459 5457 5455 5453 5452 5450 5446 5444 5441 5439
5419 5416 5417 5420 5421 5422 5421 5421 5423 5426 5429 5430 5431 5431 5433 5434 5437 5440 5442 5443 5444 5445 5448 5450 5452 5455 5454 5453 5452 5453 5454 5454 5453 5452 5450 5448 5446 5445 5444 5442 5440 5438 5435 5432
5405 5403 5403 5404 5405 5407 5408 5409 5411 5415 5418 5420 5421 5423 5424 5425 5427 5430 5431 5432 5433 5437 5440 5441 5444 5446 5445 5444 5443 5444 5445 5444 5443 5443 5442 5440 5439 5437 5436 5434 5432 5430 5429 5427
5389 5390 5391 5392 5394 5396 5397 5398 5400 5403 5406 5408 5411 5412 5413 5415 5417 5419 5421 5423 5425 5428 5430 5432 5435 5436 5435 5435 5435 5436 5437 5436 5433 5433 5433 5432 5431 5430 5429 5426 5425 5424 5422 5420
5378 5379 5380 5381 5382 5384 5386 5388 5390 5393 5395 5398 5400 5401 5403 5404 5407 5409 5411 5412 5414 5418 5421 5423 5425 5425 5426 5426 5426 5427 5427 5427 5426 5425 5424 5424 5423 5422 5421 5419 5418 5416 5414 5411
5366 5367 5369 5370 5371 5373 5375 5378 5381 5383 5386 5387 5388 5391 5393 5395 5397 5399 5400 5401 5405 5411 5415 5415 5415 5416 5417 5417 5416 5417 5417 5417 5417 5416 5415 5414 5413 5413 5412 5411 5409 5408 5406 5403
5354 5354 5356 5357 5359 5361 5364 5367 5370 5373 5376 5376 5378 5381 5384 5387 5388 5389 5390 5394 5400 5403 5405 5405 5406 5408 5408 5408 5407 5408 5408 5408 5408 5407 5406 5406 5406 5405 5404 5402 5401 5400 5398 5395
5342 5343 5345 5346 5349 5352 5354 5356 5358 5362 5366 5367 5369 5372 5375 5378 5379 5379 5382 5388 5394 5393 5394 5395 5397 5399 5399 5399 5398 5400 5400 5400 5399 5399 5398 5398 5398 5397 5396 5395 5393 5391 5390 5388
5331 5333 5335 5337 5339 5342 5346 5347 5349 5351 5355 5358 5361 5363 5365 5368 5371 5373 5376 5379 5383 5383 5385 5387 5389 5391 5391 5390 5391 5392 5392 5392 5392 5391 5391 5391 5390 5389 5388 5387 5386 5384 5382 5380
5324 5325 5327 5328 5330 5333 5337 5339 5341 5343 5346 5350 5353 5356 5358 5361 5363 5365 5370 5374 5374 5375 5377 5380 5382 5383 5382 5383 5384 5384 5385 5385 5385 5384 5384 5384 5383 5382 5382 5380 5379 5378 5376 5374
5317 5318 5319 5321 5322 5324 5328 5334 5335 5337 5339 5342 5346 5348 5350 5352 5357 5360 5362 5364 5365 5367 5370 5373 5374 5375 5375 5376 5376 5377 5377 5378 5378 5377 5377 5376 5376 5375 5375 5374 5372 5371 5369 5366
5309 5309 5311 5312 5315 5320 5323 5325 5327 5330 5333 5337 5341 5343 5344 5346 5348 5353 5355 5357 5359 5360 5363 5365 5367 5368 5368 5369 5369 5370 5371 5371 5371 5371 5370 5369 5369 5368 5368 5367 5365 5363 5362 5360
5303 5305 5308 5311 5312 5315 5317 5319 5321 5326 5328 5331 5335 5338 5339 5340 5342 5345 5347 5350 5352 5354 5356 5358 5360 5361 5362 5362 5363 5363 5363 5364 5364 5364 5363 5363 5363 5362 5361 5360 5358 5357 5355 5353
5300 5302 5303 5307 5310 5311 5312 5313 5316 5319 5322 5324 5328 5331 5332 5334 5336 5339 5341 5344 5346 5348 5350 5352 5353 5354 5355 5356 5356 5356 5356 5356 5356 5356 5356 5356 5355 5355 5354 5352 5351 5349 5348 5346